EW6434 Weather Reports


time (UTC)temp
C
wind
direction
speed
KPH
gust
KPH
rain 1hr
cm
rain 24hr
cm
rain mn
cm
humidity
%
barometer
mb
20260901160105 13 223 0.0 0.0 0.03 0.66 0.03 82 1018.3
20260901154555 11 222 0.0 0.0 0.00 0.64 0.00 86 1018.5
20260901153050 10 223 0.0 0.0 0.00 0.64 0.00 93 1018.8
20260901151546 8 245 0.0 0.0 0.00 0.64 0.00 97 1018.9
20260901150041 6 245 0.0 0.0 0.00 0.64 0.00 97 1019.0
20260901144540 5 245 0.0 0.0 0.00 0.64 0.00 97 1019.2
20260901143045 5 245 0.0 0.0 0.00 0.64 0.00 97 1019.3
20260901141544 4 245 0.0 0.0 0.00 0.64 0.00 97 1019.4
20260901140051 4 245 0.0 0.0 0.00 0.64 0.00 97 1019.5
20260901134548 3 245 0.0 0.0 0.00 0.64 0.00 97 1019.5
20260901133041 3 245 0.0 0.0 0.00 0.64 0.00 97 1019.4
20260901131538 3 245 0.0 0.0 0.00 0.64 0.00 97 1019.2
20260901130039 3 245 0.0 0.0 0.00 0.64 0.00 97 1018.9
20260901124531 4 245 0.0 0.0 0.00 0.64 0.00 97 1018.6
20260901123028 4 245 0.0 0.0 0.00 0.64 0.00 97 1018.3
20260901121527 4 245 0.0 0.0 0.00 0.64 0.00 97 1018.2
20260901120042 4 245 0.0 0.0 0.00 0.64 0.00 97 1017.9
20260901114525 5 245 0.0 0.0 0.00 0.64 0.00 97 1017.8
20260901113023 5 245 0.0 0.0 0.00 0.64 0.00 97 1017.5
20260901111523 5 245 0.0 0.0 0.00 0.64 0.00 97 1017.6
20260901110022 5 245 0.0 0.0 0.00 0.64 0.00 97 1017.5
20260901104521 5 245 0.0 0.0 0.00 0.64 0.00 97 1017.5
20260901103026 5 245 0.0 0.0 0.00 0.64 0.00 97 1017.5
20260901101518 5 245 0.0 0.0 0.00 0.64 0.00 97 1017.5
20260901100016 5 245 0.0 0.0 0.00 0.64 0.00 97 1017.4
20260901094515 5 245 0.0 0.0 0.00 0.66 0.00 97 1017.5
20260901093015 5 245 0.0 0.0 0.00 0.66 0.00 96 1017.5
20260901091513 6 245 0.0 0.0 0.00 0.66 0.00 97 1017.4
20260901090013 6 245 0.0 0.0 0.00 0.66 0.00 97 1017.6
20260901084515 6 245 0.0 0.0 0.00 0.79 0.00 97 1017.5
20260901083012 6 245 0.0 0.0 0.00 0.79 0.00 96 1017.8
20260901081512 6 245 0.0 0.0 0.00 0.79 0.00 96 1018.1
20260901080010 6 245 0.0 0.0 0.00 0.79 0.00 96 1018.1
20260901074509 6 245 0.0 0.0 0.00 0.84 0.00 96 1018.2
20260901073007 6 245 0.0 0.0 0.00 0.84 0.00 96 1018.1
20260901071518 6 245 0.0 0.0 0.00 0.84 0.00 96 1017.8
20260901070014 6 290 0.0 0.0 0.00 0.84 0.00 96 1017.6
20260901064505 6 290 0.0 0.0 0.00 0.84 0.00 96 1017.7
20260901063003 6 290 0.0 0.0 0.00 0.84 0.00 96 1017.7
20260901061502 6 290 0.0 0.0 0.00 0.84 0.00 96 1017.7
20260901060100 6 290 0.0 0.0 0.00 0.84 0.00 96 1017.3
20260901054559 6 290 0.0 0.0 0.00 0.84 0.84 96 1017.3
20260901053121 6 290 0.0 0.0 0.00 0.84 0.84 96 1017.4
20260901051609 6 290 0.0 0.0 0.00 0.84 0.84 96 1017.3
20260901050055 6 290 0.0 0.0 0.00 0.84 0.84 96 1017.3
20260901044606 6 290 0.0 0.0 0.00 1.02 0.84 96 1017.3
20260901043054 6 290 0.0 0.0 0.00 1.02 0.84 96 1017.1
20260901041553 6 290 0.0 0.0 0.00 1.02 0.84 96 1017.1
20260901040108 7 290 0.0 0.0 0.00 1.02 0.84 95 1016.9
20260901034604 7 290 0.0 0.0 0.00 1.02 0.84 95 1016.6
20260901033045 7 290 0.0 0.0 0.00 1.02 0.84 95 1016.5
20260901031544 7 290 0.0 0.0 0.00 1.02 0.84 95 1015.8
20260901030043 7 290 0.0 0.0 0.00 1.02 0.84 95 1015.6
20260901024551 7 290 0.0 0.0 0.00 1.35 0.84 95 1015.4
20260901023056 7 290 0.0 0.0 0.00 1.35 0.84 94 1015.1
20260901021540 8 290 0.0 0.0 0.00 1.35 0.84 94 1014.6
20260901020044 8 290 0.0 0.0 0.00 1.35 0.84 93 1014.5
20260901014550 9 290 0.0 0.0 0.00 1.42 0.84 92 1014.5
20260901013039 10 290 0.0 0.0 0.00 1.42 0.84 91 1014.5
20260901011539 10 290 0.0 0.0 0.00 1.42 0.84 92 1014.5
20260901010038 10 290 0.0 0.0 0.00 1.42 0.84 90 1014.3
20260901004538 10 290 0.0 0.0 0.00 1.42 0.84 90 1014.8
20260901003038 10 290 0.0 0.0 0.00 1.42 0.84 91 1014.9
20260901001537 10 290 0.0 0.0 0.00 1.42 0.84 90 1015.1
20260901000035 11 290 0.0 1.6 0.00 1.42 0.84 90 1015.3
20260831234540 11 142 0.0 4.8 0.00 1.42 0.84 88 1015.1
20260831233034 10 110 0.0 1.6 0.08 1.42 0.84 88 1015.0
20260831231534 11 110 0.0 1.6 0.10 1.42 0.84 88 1014.8
20260831230033 11 135 0.0 9.7 0.15 1.42 0.84 86 1014.6
20260831224533 11 141 0.0 3.2 0.15 1.75 0.84 87 1014.8
20260831223036 11 167 0.0 0.0 0.08 1.68 0.76 90 1015.1
20260831221532 11 139 0.0 3.2 0.05 1.65 0.71 87 1014.9
20260831220031 12 323 0.0 3.2 0.05 1.60 0.69 86 1014.7
20260831214531 12 131 0.0 6.4 0.05 1.60 0.69 91 1014.7
20260831213030 11 115 0.0 1.6 0.08 1.60 0.69 91 1014.7
20260831211531 11 110 0.0 1.6 0.08 1.60 0.69 91 1014.6
20260831210029 11 95 0.0 0.0 0.05 1.55 0.64 91 1014.6
20260831204529 11 189 0.0 0.0 0.10 1.55 0.64 91 1014.6
20260831203029 11 189 0.0 0.0 0.18 1.52 0.61 90 1014.9
20260831201629 11 189 0.0 0.0 0.28 1.52 0.61 93 1014.8
20260831200039 11 192 0.0 0.0 0.36 1.50 0.58 93 1015.0
20260831194528 11 319 0.0 0.0 0.33 1.42 0.53 93 1015.7
20260831193036 11 93 0.0 3.2 0.23 1.35 0.43 91 1015.7
20260831191532 11 124 0.0 1.6 0.10 1.22 0.30 88 1015.5
20260831190025 12 146 0.0 0.0 0.03 1.14 0.23 85 1015.1
20260831184525 12 113 0.0 4.8 0.00 1.12 0.20 80 1015.0
20260831183023 13 109 0.0 3.2 0.00 1.12 0.20 78 1015.2
20260831181525 13 96 0.0 1.6 0.00 1.12 0.20 79 1015.2
20260831180033 13 71 0.0 1.6 0.00 1.12 0.20 80 1015.3
20260831174524 13 239 0.0 1.6 0.00 1.12 0.20 78 1015.3
20260831173021 13 230 0.0 1.6 0.00 1.12 0.20 77 1015.5
20260831171519 13 23 0.0 1.6 0.00 1.12 0.20 80 1015.4
20260831170019 13 44 0.0 6.4 0.00 1.12 0.20 76 1015.5
20260831164535 13 130 0.0 8.0 0.00 1.12 0.20 80 1015.3
20260831163017 13 172 0.0 4.8 0.00 1.12 0.20 79 1015.2
20260831161515 12 307 0.0 3.2 0.00 1.12 0.20 81 1015.0